CZ-6A DEB, 56259

Orbit data source: Space-Track

CZ-6A DEB, 56259 is space debris in SSO originally from a launch on Fri, 11 Nov 2022 UTC launched from the Taiyaun Space Center, China (TSC). Debris objects in space refer to the collection of defunct objects orbiting the Earth. Examples of debris include non-operational satellites, rocket bodies, and fragments generated from explosions, collisions, or faulty payload assembly.

Loading next visibility...
Identifier
56259, 2022-151ACB
Orbit
SSO
Country
Flag of CNCN / PRC
Related business
Manufacturer
SAST
Mission
Spacecraft
Bus & Motor
Unknown
Mass
Unknown
Launch date (UTC)
2022-11-11 (3 years ago)
Launch vehicle
Unknown
Launch site
Taiyaun Space Center, China (TSC)
Object type
Payload
Rocket body
Debris
Shape & HBR
Unknown shape, 0.1 m
Radar Cross Section
Small (<0.1 m²)

Expand to show TLE details & history
Last TLE update: 2 weeks ago

TLE from 2 weeks ago
0 CZ-6A DEB
1 56259U 22151ACB 25338.24640288  .00001916  00000-0  97605-3 0  9990
2 56259  98.8263 338.0026 0048169 169.9318 190.2832 14.16349409145491
Epoch: 2025-12-04T05:54Z
TLE epoch observation values (Epoch: 2025-12-04T05:54:49.208Z)
Latitude
-0.00008°
Longitude
175.99198°
Altitude
874.843 km
Speed
7.397 km/s
True Right ascension
22h 32m 00s
True Declination
0° 00' 00"
Sunlit
Object was in daylight at epoch
Visualization orbit readout
Latitude
Unknown
Longitude
Unknown
Altitude
Unknown
Speed
Unknown
Apparent Right ascension
Unknown
Apparent Declination
Unknown
Sunlit
N/A
Visualization observer readout
Local Sidereal Time
06:13:03
Azimuth
Unknown
Elevation
Unknown
Doppler factor
Unknown
Orbital elements
Apogee altitude
869.639 km
Perigee altitude
800.15 km
Semi-major axis
7,213.031 km
Eccentricity
0.00482
Inclination
98.8263°
RAAN
338.0026°
Arg. of periapsis
169.9318°
True anomaly
190.18525°
Mean anomaly
190.2832°
Eccentric anomaly
190.23416°
Mean motion
3.54296 °/min
Orbital period
101.61 mins
BSTAR
0.00097605
Loading maneuver chart data...
Computing Atmospheric mass density...
Loading historical data...
Loading historical data...
Loading historical data...
Loading historical data...
Loading historical data...
Loading historical data...
Loading historical data...

Documentation

Showing up to 5 results
|